QPF
0.00 0.00 0.00 0.00 0.00 0.00 0.00 0.00 0.00 0.00 0.00 0.00 0.00 0.00 0.00 0.00 0.00 0.00 0.00 0.00 0.00 0.00 0.00 0.00 0.00 0.00 0.00 0.00 0.00 0.00 0.00 0.00 0.00 0.00 0.00 0.00 0.00 0.00 0.00 0.00 0.00 0.00
0.00 0.00 0.00 0.00 0.00 0.00 0.00 0.00 0.00 0.00 0.00 0.00 0.00 0.00 0.00 0.00 0.00 0.00 0.00 0.00 0.00 0.00 0.00 0.00 0.00 0.00 0.00 0.00 0.00 0.00 0.00 0.00 0.00 0.00 0.00 0.00 0.00 0.00 0.00 0.00 0.00 0.00
0.00 0.00 0.00 0.00 0.00 0.00 0.00 0.00 0.00 0.00 0.00 0.00 0.00 0.00 0.00 0.00 0.00 0.00 0.00 0.00 0.00 0.00 0.00 0.00 0.00 0.00 0.00 0.00 0.00 0.00 0.00 0.00 0.00 0.00 0.00 0.00 0.00 0.00 0.00 0.00 0.00 0.00
0.00 0.00 0.00 0.00 0.00 0.00 0.00 0.00 0.00 0.00 0.00 0.00 0.00 0.00 0.00 0.00 0.00 0.00 0.00 0.00 0.00 0.00 0.00 0.00 0.00 0.00 0.00 0.00 0.00 0.00 0.00 0.00 0.00 0.00 0.00 0.00 0.00 0.00 0.00 0.00 0.00 0.00
0.00 0.00 0.00 0.00 0.00 0.00 0.00 0.00 0.00 0.00 0.00 0.00 0.00 0.00 0.00 0.00 0.00 0.00 0.00 0.00 0.00 0.00 0.00 0.00 0.00 0.00 0.00 0.00 0.00 0.00 0.00 0.00 0.00 0.00 0.00 0.00 0.00 0.00 0.00 0.00 0.00 0.00
0.00 0.00 0.00 0.00 0.00 0.00 0.00 0.00 0.00 0.00 0.00 0.00 0.00 0.00 0.00 0.00 0.00 0.00 0.00 0.00 0.00 0.00 0.00 0.00 0.00 0.00 0.00 0.00 0.00 0.00 0.00 0.00 0.00 0.00 0.00 0.00 0.00 0.00 0.00 0.00 0.00 0.00
0.00 0.00 0.00 0.00 0.00 0.00 0.00 0.00 0.00 0.00 0.00 0.00 0.00 0.00 0.00 0.00 0.00 0.00 0.00 0.00 0.00 0.00 0.00 0.00 0.00 0.00 0.00 0.00 0.00 0.00 0.00 0.00 0.00 0.00 0.00 0.00 0.00 0.00 0.00 0.00 0.00 0.00
0.00 0.00 0.00 0.00 0.00 0.00 0.00 0.00 0.00 0.00 0.00 0.00 0.00 0.00 0.00 0.00 0.00 0.00 0.00 0.00 0.00 0.00 0.00 0.00 0.00 0.00 0.00 0.00 0.00 0.00 0.00 0.00 0.00 0.00 0.00 0.00 0.00 0.00 0.00 0.00 0.00 0.00
0.00 0.00 0.00 0.00 0.00 0.00 0.00 0.00 0.00 0.00 0.00 0.00 0.00 0.00 0.00 0.00 0.00 0.00 0.00 0.00 0.00 0.00 0.00 0.00 0.00 0.00 0.00 0.00 0.00 0.00 0.00 0.00 0.00 0.00 0.00 0.00 0.00 0.00 0.00 0.00 0.00 0.00
0.00 0.00 0.00 0.00 0.00 0.00 0.00 0.00 0.00 0.00 0.00 0.00 0.00 0.00 0.00 0.00 0.00 0.00 0.00 0.00 0.00 0.00 0.00 0.00 0.00 0.00 0.00 0.00 0.00 0.00 0.00 0.00 0.00 0.00 0.00 0.00 0.00 0.00 0.00 0.00 0.00 0.00
0.00 0.00 0.00 0.00 0.00 0.00 0.00 0.00 0.00 0.00 0.00 0.00 0.00 0.00 0.00 0.00 0.00 0.00 0.00 0.00 0.00 0.00 0.00 0.00 0.00 0.00 0.00 0.00 0.00 0.00 0.00 0.00 0.00 0.00 0.00 0.00 0.00 0.00 0.00 0.00 0.00 0.00
0.00 0.00 0.00 0.00 0.00 0.00 0.00 0.00 0.00 0.00 0.00 0.00 0.00 0.00 0.00 0.00 0.00 0.00 0.00 0.00 0.00 0.00 0.00 0.00 0.00 0.00 0.00 0.00 0.00 0.00 0.00 0.00 0.00 0.00 0.00 0.00 0.00 0.00 0.00 0.00 0.00 0.00
0.00 0.00 0.00 0.00 0.00 0.00 0.00 0.00 0.00 0.00 0.00 0.00 0.00 0.00 0.00 0.00 0.00 0.00 0.00 0.00 0.00 0.00 0.00 0.00 0.00 0.00 0.00 0.00 0.00 0.00 0.00 0.00 0.00 0.00 0.00 0.01 0.00 0.00 0.00 0.00 0.00 0.00
0.00 0.00 0.00 0.00 0.00 0.00 0.00 0.00 0.00 0.00 0.00 0.00 0.00 0.00 0.00 0.00 0.00 0.00 0.00 0.00 0.00 0.00 0.00 0.00 0.00 0.00 0.00 0.00 0.00 0.00 0.00 0.00 0.00 0.00 0.00 0.00 0.00 0.00 0.00 0.00 0.00 0.00
0.00 0.00 0.00 0.00 0.00 0.00 0.00 0.00 0.00 0.00 0.00 0.00 0.00 0.00 0.00 0.00 0.00 0.00 0.00 0.00 0.00 0.00 0.00 0.00 0.00 0.00 0.00 0.00 0.00 0.00 0.00 0.00 0.00 0.00 0.00 0.00 0.00 0.00 0.00 0.00 0.00 0.00
0.00 0.00 0.00 0.00 0.00 0.00 0.00 0.00 0.00 0.00 0.00 0.00 0.00 0.00 0.00 0.00 0.00 0.00 0.00 0.00 0.00 0.00 0.00 0.00 0.00 0.00 0.00 0.00 0.00 0.00 0.00 0.00 0.00 0.00 0.00 0.00 0.00 0.00 0.00 0.00 0.00 0.00
0.00 0.00 0.00 0.00 0.00 0.00 0.00 0.00 0.00 0.00 0.00 0.00 0.00 0.00 0.00 0.00 0.00 0.00 0.00 0.00 0.00 0.00 0.00 0.00 0.00 0.00 0.00 0.00 0.00 0.00 0.00 0.00 0.00 0.00 0.00 0.00 0.00 0.00 0.00 0.00 0.00 0.00
0.00 0.00 0.00 0.00 0.00 0.00 0.00 0.00 0.00 0.00 0.00 0.00 0.00 0.00 0.00 0.00 0.00 0.00 0.00 0.00 0.00 0.00 0.00 0.00 0.00 0.00 0.00 0.00 0.00 0.00 0.00 0.00 0.00 0.00 0.00 0.00 0.00 0.00 0.00 0.00 0.00 0.00
0.00 0.00 0.00 0.00 0.00 0.00 0.00 0.00 0.00 0.00 0.00 0.00 0.00 0.00 0.00 0.00 0.00 0.00 0.00 0.00 0.00 0.00 0.00 0.00 0.00 0.00 0.00 0.00 0.00 0.00 0.00 0.00 0.00 0.00 0.00 0.00 0.00 0.00 0.00 0.00 0.00 0.00
0.01 0.00 0.00 0.00 0.00 0.00 0.00 0.00 0.00 0.00 0.00 0.00 0.00 0.00 0.00 0.00 0.00 0.00 0.00 0.00 0.00 0.00 0.00 0.00 0.00 0.00 0.00 0.00 0.00 0.00 0.00 0.00 0.00 0.00 0.00 0.00 0.00 0.00 0.00 0.00 0.00 0.00
0.03 0.02 0.01 0.02 0.00 0.00 0.00 0.00 0.00 0.00 0.00 0.00 0.00 0.00 0.00 0.00 0.00 0.00 0.00 0.00 0.00 0.00 0.00 0.00 0.00 0.00 0.00 0.00 0.00 0.00 0.00 0.00 0.00 0.00 0.00 0.00 0.00 0.00 0.00 0.00 0.00 0.00
0.11 0.07 0.04 0.03 0.01 0.01 0.00 0.00 0.00 0.00 0.08 0.00 0.00 0.00 0.00 0.00 0.00 0.01 0.02 0.00 0.00 0.00 0.00 0.00 0.00 0.00 0.00 0.00 0.03 0.04 0.02 0.03 0.02 0.01 0.00 0.00 0.00 0.00 0.00 0.00 0.00 0.00
0.09 0.08 0.07 0.06 0.05 0.12 0.21 0.16 0.10 0.11 0.05 0.11 0.14 0.14 0.16 0.29 0.50 0.35 0.08 0.05 0.02 0.00 0.00 0.00 0.00 0.00 0.00 0.01 0.03 0.03 0.03 0.03 0.02 0.01 0.01 0.00 0.00 0.00 0.00 0.00 0.00 0.00
0.04 0.04 0.03 0.03 0.02 0.07 0.09 0.11 0.10 0.24 0.24 0.28 0.29 0.10 0.08 0.14 0.14 0.11 0.04 0.08 0.04 0.01 0.00 0.05 0.01 0.03 0.27 0.01 0.03 0.06 0.06 0.04 0.06 0.19 0.04 0.04 0.01 0.01 0.01 0.00 0.00 0.00
0.01 0.00 0.00 0.00 0.00 0.00 0.01 0.00 0.00 0.03 0.11 0.33 0.32 0.33 0.34 0.50 0.28 0.09 0.12 0.26 0.04 0.12 0.01 0.01 0.01 0.01 0.01 0.00 0.00 0.00 0.01 0.01 0.03 0.12 0.06 0.09 0.09 0.06 0.03 0.02 0.04 0.02
0.00 0.00 0.01 0.08 0.01 0.00 0.01 0.00 0.00 0.01 0.01 0.03 0.17 0.50 0.17 0.45 0.35 0.24 0.23 0.14 0.03 0.02 0.02 0.02 0.03 0.03 0.02 0.01 0.01 0.01 0.01 0.01 0.01 0.05 0.14 0.22 0.15 0.07 0.45 0.35 0.16 0.03
MSLP
1018.52 1018.60 1018.76 1018.92 1019.00 1019.04 1019.20 1019.44 1019.48 1019.52 1019.56 1019.56 1019.76 1019.72 1019.64 1019.40 1019.32 1019.40 1019.40 1019.44 1019.52 1019.56 1019.60 1019.64 1019.64 1019.72 1019.72 1019.76 1019.76 1019.88 1019.96 1020.04 1020.04 1020.00 1020.04 1020.08 1020.16 1020.24 1020.36 1020.32 1020.24 1020.24
1018.52 1018.52 1018.56 1018.72 1018.88 1018.88 1019.00 1019.00 1019.16 1019.28 1019.40 1019.40 1019.36 1019.36 1019.32 1019.28 1019.24 1019.24 1019.36 1019.44 1019.44 1019.52 1019.44 1019.52 1019.60 1019.68 1019.76 1019.88 1019.88 1019.96 1020.00 1020.00 1020.08 1019.88 1020.04 1020.08 1020.08 1020.08 1020.20 1020.20 1020.16 1020.04
1018.48 1018.60 1018.64 1018.84 1018.92 1018.96 1018.92 1018.88 1018.96 1019.08 1019.16 1019.16 1019.16 1019.20 1019.24 1019.16 1019.28 1019.20 1019.24 1019.32 1019.48 1019.48 1019.52 1019.52 1019.60 1019.64 1019.68 1019.76 1019.84 1019.96 1020.08 1020.08 1020.12 1019.92 1019.96 1020.04 1019.96 1020.04 1020.00 1020.00 1020.00 1019.96
1018.44 1018.44 1018.56 1018.60 1018.68 1018.80 1018.76 1018.92 1019.00 1019.04 1019.04 1019.24 1019.24 1019.08 1019.08 1019.08 1019.12 1019.24 1019.24 1019.24 1019.44 1019.48 1019.48 1019.52 1019.56 1019.60 1019.64 1019.68 1019.80 1019.92 1019.96 1020.00 1019.88 1019.84 1020.00 1019.92 1019.88 1019.88 1019.92 1019.80 1019.76 1019.76
1018.32 1018.40 1018.44 1018.48 1018.48 1018.56 1018.68 1018.92 1019.04 1019.04 1019.12 1019.04 1019.00 1019.04 1019.08 1019.12 1019.20 1019.24 1019.24 1019.28 1019.32 1019.44 1019.48 1019.52 1019.48 1019.56 1019.60 1019.68 1019.72 1019.92 1019.92 1020.00 1019.84 1019.88 1020.04 1020.08 1019.84 1019.80 1019.72 1019.72 1019.80 1019.84
1018.16 1018.20 1018.28 1018.40 1018.48 1018.64 1018.80 1018.88 1018.88 1018.96 1019.04 1019.12 1019.08 1018.96 1019.00 1019.00 1019.12 1019.16 1019.20 1019.28 1019.32 1019.40 1019.48 1019.44 1019.52 1019.52 1019.52 1019.64 1019.72 1019.80 1019.84 1019.96 1019.80 1019.80 1020.00 1020.08 1019.88 1019.68 1019.72 1019.72 1019.84 1019.96
1018.20 1018.24 1018.36 1018.32 1018.44 1018.52 1018.72 1018.76 1018.76 1018.80 1018.88 1018.80 1018.80 1018.96 1018.88 1019.04 1019.08 1019.04 1019.04 1019.12 1019.20 1019.32 1019.40 1019.48 1019.52 1019.52 1019.44 1019.56 1019.68 1019.80 1019.76 1019.80 1019.76 1019.80 1019.96 1019.92 1019.88 1019.80 1019.68 1019.80 1019.92 1020.00
1018.04 1018.08 1018.20 1018.32 1018.44 1018.48 1018.64 1018.64 1018.68 1018.72 1018.64 1018.68 1018.88 1018.68 1018.72 1018.84 1018.88 1018.88 1018.88 1018.96 1019.12 1019.24 1019.28 1019.32 1019.36 1019.40 1019.40 1019.48 1019.64 1019.76 1019.76 1019.68 1019.76 1019.84 1019.92 1019.92 1019.88 1020.00 1019.80 1019.76 1019.84 1019.96
1017.88 1018.08 1018.20 1018.36 1018.48 1018.52 1018.60 1018.52 1018.44 1018.44 1018.36 1018.60 1018.64 1018.56 1018.48 1018.60 1018.64 1018.68 1018.76 1018.88 1019.04 1019.08 1019.16 1019.20 1019.20 1019.28 1019.28 1019.40 1019.52 1019.60 1019.64 1019.60 1019.56 1019.64 1019.80 1019.96 1020.00 1019.96 1019.84 1019.68 1019.76 1019.80
1017.92 1017.96 1018.12 1018.28 1018.44 1018.40 1018.48 1018.32 1018.20 1018.20 1018.16 1018.32 1018.32 1018.32 1018.44 1018.36 1018.36 1018.44 1018.56 1018.80 1018.96 1019.00 1019.04 1019.08 1019.08 1019.12 1019.16 1019.20 1019.24 1019.36 1019.44 1019.48 1019.44 1019.48 1019.60 1019.68 1019.76 1019.72 1019.72 1019.80 1019.84 1019.88
1017.84 1017.84 1018.00 1018.08 1018.16 1018.16 1018.20 1018.12 1018.04 1018.00 1018.00 1018.12 1018.16 1018.28 1018.20 1018.24 1018.28 1018.24 1018.48 1018.64 1018.84 1018.84 1018.88 1018.92 1018.88 1018.92 1019.04 1019.08 1019.04 1019.00 1019.12 1019.20 1019.24 1019.32 1019.40 1019.44 1019.52 1019.60 1019.56 1019.56 1019.64 1019.64
1017.60 1017.68 1017.72 1017.68 1017.72 1017.80 1017.84 1017.84 1017.80 1017.88 1017.92 1017.92 1017.96 1018.12 1018.08 1018.04 1018.12 1018.20 1018.28 1018.44 1018.44 1018.44 1018.48 1018.56 1018.56 1018.68 1018.76 1018.84 1018.84 1018.84 1018.92 1018.96 1019.04 1019.12 1019.20 1019.28 1019.32 1019.32 1019.32 1019.32 1019.40 1019.36
1017.28 1017.36 1017.36 1017.44 1017.44 1017.52 1017.56 1017.64 1017.72 1017.68 1017.76 1017.88 1017.76 1017.92 1018.00 1018.08 1018.00 1018.08 1018.04 1018.12 1018.12 1018.16 1018.24 1018.24 1018.28 1018.40 1018.52 1018.60 1018.64 1018.68 1018.76 1018.88 1018.96 1019.00 1019.08 1019.08 1019.08 1019.04 1019.04 1019.04 1019.04 1019.00
1017.08 1017.08 1017.20 1017.28 1017.28 1017.32 1017.40 1017.44 1017.52 1017.56 1017.56 1017.52 1017.56 1017.76 1017.80 1017.80 1017.88 1017.92 1017.84 1017.84 1017.88 1017.88 1017.84 1017.84 1018.00 1018.20 1018.28 1018.36 1018.44 1018.48 1018.60 1018.68 1018.76 1018.92 1019.04 1019.04 1019.00 1018.92 1018.88 1018.88 1018.84 1018.80
1017.12 1017.04 1017.00 1017.12 1017.16 1017.28 1017.36 1017.40 1017.40 1017.40 1017.36 1017.32 1017.32 1017.32 1017.28 1017.28 1017.32 1017.40 1017.60 1017.76 1017.72 1017.72 1017.72 1017.72 1017.88 1018.00 1018.00 1018.12 1018.28 1018.32 1018.32 1018.48 1018.56 1018.68 1018.84 1018.96 1018.96 1018.84 1018.76 1018.76 1018.76 1018.72
1016.92 1016.96 1016.96 1017.00 1017.12 1017.24 1017.28 1017.28 1017.36 1017.36 1017.36 1017.32 1017.28 1017.20 1017.20 1017.16 1017.20 1017.24 1017.36 1017.48 1017.56 1017.52 1017.52 1017.64 1017.68 1017.64 1017.64 1017.64 1017.72 1017.92 1018.12 1018.20 1018.28 1018.40 1018.52 1018.68 1018.84 1018.84 1018.72 1018.68 1018.64 1018.64
1017.12 1017.12 1017.00 1017.08 1017.12 1017.16 1017.20 1017.20 1017.20 1017.20 1017.32 1017.36 1017.28 1017.20 1017.16 1017.04 1017.00 1017.16 1017.24 1017.32 1017.44 1017.48 1017.56 1017.48 1017.40 1017.32 1017.36 1017.52 1017.60 1017.64 1017.80 1018.04 1018.20 1018.24 1018.28 1018.44 1018.60 1018.68 1018.72 1018.56 1018.48 1018.44
1017.04 1017.16 1017.12 1017.08 1017.04 1017.08 1017.12 1017.16 1017.16 1017.20 1017.28 1017.36 1017.40 1017.36 1017.20 1017.04 1017.08 1017.12 1017.20 1017.24 1017.28 1017.36 1017.48 1017.52 1017.56 1017.72 1017.80 1017.88 1017.88 1017.96 1017.96 1018.00 1018.00 1018.12 1018.16 1018.28 1018.32 1018.40 1018.36 1018.32 1018.36 1018.32
1017.00 1017.08 1017.12 1017.08 1017.04 1017.00 1017.08 1017.20 1017.24 1017.28 1017.40 1017.52 1017.64 1017.52 1017.36 1017.32 1017.28 1017.24 1017.28 1017.28 1017.28 1017.44 1017.60 1017.68 1017.80 1017.96 1018.00 1018.04 1017.96 1017.88 1017.96 1018.04 1018.08 1018.04 1018.04 1018.04 1018.04 1018.04 1018.04 1018.08 1018.12 1018.24
1017.04 1017.12 1017.12 1017.08 1017.00 1017.00 1017.04 1017.20 1017.36 1017.52 1017.48 1017.44 1017.48 1017.48 1017.56 1017.52 1017.40 1017.40 1017.40 1017.44 1017.48 1017.56 1017.72 1017.80 1017.88 1018.00 1018.00 1017.92 1017.88 1017.76 1017.64 1017.68 1017.80 1017.88 1017.84 1017.72 1017.68 1017.64 1017.68 1017.76 1017.84 1018.00
1017.08 1017.16 1017.32 1017.32 1017.24 1017.20 1017.24 1017.32 1017.36 1017.44 1017.44 1017.36 1017.32 1017.36 1017.44 1017.48 1017.48 1017.48 1017.44 1017.52 1017.60 1017.68 1017.76 1017.84 1017.96 1018.08 1018.04 1018.00 1017.96 1017.84 1017.76 1017.52 1017.52 1017.60 1017.60 1017.52 1017.40 1017.32 1017.32 1017.40 1017.56 1017.68
1017.16 1017.24 1017.28 1017.36 1017.40 1017.44 1017.60 1017.76 1017.76 1017.72 1017.64 1017.48 1017.36 1017.28 1017.24 1017.32 1017.56 1017.76 1017.92 1017.84 1017.80 1017.88 1017.96 1018.00 1018.28 1018.32 1018.20 1018.08 1018.04 1017.96 1017.84 1017.60 1017.44 1017.44 1017.52 1017.56 1017.52 1017.40 1017.32 1017.28 1017.36 1017.48
1017.24 1017.24 1017.36 1017.40 1017.52 1017.72 1017.84 1017.80 1017.80 1017.76 1017.96 1017.92 1018.08 1018.04 1017.96 1017.96 1018.24 1018.44 1018.60 1018.60 1018.60 1018.48 1018.44 1018.40 1018.40 1018.48 1018.48 1018.40 1018.28 1018.24 1018.24 1017.92 1017.76 1017.68 1017.64 1017.68 1017.68 1017.56 1017.40 1017.28 1017.28 1017.36
1017.28 1017.40 1017.60 1017.80 1017.92 1018.08 1018.04 1017.88 1017.84 1018.04 1018.36 1018.24 1018.36 1018.28 1018.24 1018.00 1017.64 1017.56 1017.64 1017.88 1018.08 1018.16 1018.16 1018.32 1018.52 1018.68 1018.68 1018.60 1018.52 1018.44 1018.44 1018.36 1018.00 1017.88 1017.88 1017.72 1017.60 1017.44 1017.36 1017.28 1017.20 1017.12
1017.52 1017.52 1017.72 1017.96 1018.24 1018.36 1018.28 1018.32 1018.28 1018.36 1018.32 1018.32 1018.28 1018.00 1017.92 1017.88 1017.92 1018.16 1018.32 1018.48 1018.48 1018.52 1018.36 1018.56 1018.88 1018.96 1018.92 1018.76 1018.56 1018.56 1018.52 1018.48 1018.40 1018.12 1018.04 1017.92 1017.72 1017.60 1017.48 1017.44 1017.32 1017.00
1017.72 1017.76 1017.80 1017.92 1018.08 1018.16 1018.20 1018.32 1018.32 1018.32 1018.28 1018.12 1018.08 1018.00 1018.08 1018.08 1018.00 1018.12 1018.56 1018.92 1018.84 1018.80 1018.84 1018.92 1019.08 1019.24 1019.24 1019.08 1018.88 1018.76 1018.68 1018.60 1018.52 1018.24 1018.12 1018.08 1017.80 1017.48 1017.84 1018.16 1018.08 1017.72
Thickness
5779 5779 5779 5778 5778 5777 5777 5775 5775 5775 5774 5774 5774 5774 5776 5777 5778 5779 5778 5778 5779 5778 5779 5778 5778 5778 5778 5778 5778 5778 5778 5778 5778 5778 5778 5777 5776 5775 5775 5776 5776 5776
5779 5780 5779 5779 5778 5778 5778 5778 5777 5776 5776 5777 5777 5777 5778 5779 5779 5779 5780 5780 5780 5779 5780 5780 5779 5779 5778 5778 5778 5778 5778 5778 5778 5778 5778 5777 5777 5777 5776 5776 5777 5777
5779 5779 5779 5778 5778 5778 5779 5779 5779 5778 5778 5778 5778 5778 5779 5780 5779 5780 5780 5780 5780 5780 5780 5780 5779 5779 5778 5778 5778 5777 5777 5777 5777 5779 5778 5778 5778 5778 5778 5778 5778 5779
5778 5778 5779 5778 5778 5779 5779 5779 5778 5778 5778 5778 5778 5779 5780 5780 5780 5780 5780 5780 5780 5780 5780 5780 5780 5779 5779 5779 5778 5778 5777 5777 5778 5779 5778 5778 5779 5779 5779 5780 5780 5780
5778 5778 5779 5779 5778 5779 5778 5778 5777 5777 5777 5777 5778 5779 5779 5780 5780 5780 5780 5780 5780 5780 5780 5779 5779 5780 5779 5779 5778 5778 5777 5778 5779 5779 5777 5777 5779 5780 5780 5780 5780 5780
5778 5778 5778 5778 5778 5778 5776 5777 5777 5777 5777 5777 5778 5778 5779 5780 5779 5779 5780 5780 5780 5780 5779 5779 5779 5779 5780 5779 5779 5778 5777 5778 5778 5779 5778 5777 5779 5780 5781 5780 5779 5778
5776 5777 5778 5777 5778 5777 5776 5776 5776 5777 5777 5777 5778 5778 5779 5779 5779 5780 5780 5780 5780 5780 5779 5779 5779 5779 5779 5779 5778 5777 5778 5778 5778 5778 5777 5778 5778 5779 5779 5779 5777 5776
5775 5775 5775 5775 5776 5776 5775 5776 5776 5776 5777 5777 5777 5778 5779 5779 5779 5780 5780 5780 5780 5779 5779 5779 5779 5779 5779 5779 5778 5778 5778 5778 5779 5778 5777 5777 5777 5776 5777 5778 5777 5776
5773 5773 5773 5773 5773 5773 5774 5775 5776 5777 5778 5778 5778 5779 5780 5780 5780 5780 5780 5779 5779 5778 5779 5779 5778 5779 5779 5779 5778 5778 5778 5778 5779 5778 5777 5776 5776 5775 5776 5777 5776 5776
5771 5771 5771 5770 5770 5771 5772 5774 5776 5778 5778 5779 5779 5779 5780 5780 5780 5780 5780 5779 5778 5777 5777 5778 5777 5778 5778 5778 5778 5779 5778 5778 5779 5778 5777 5777 5776 5776 5776 5776 5776 5775
5770 5770 5770 5770 5770 5771 5772 5774 5776 5778 5778 5779 5779 5779 5779 5780 5780 5780 5779 5778 5777 5777 5777 5777 5777 5777 5777 5777 5778 5779 5778 5778 5778 5778 5777 5777 5777 5776 5776 5777 5776 5776
5769 5769 5770 5771 5771 5772 5773 5774 5776 5776 5777 5778 5777 5777 5778 5779 5779 5779 5779 5778 5778 5778 5778 5778 5778 5778 5777 5776 5777 5778 5777 5778 5777 5777 5777 5777 5777 5777 5777 5778 5777 5777
5769 5770 5770 5771 5772 5772 5773 5774 5774 5776 5776 5776 5777 5776 5776 5777 5777 5778 5779 5779 5779 5780 5780 5780 5779 5778 5777 5776 5776 5777 5777 5777 5777 5777 5777 5777 5777 5778 5778 5778 5779 5778
5770 5770 5770 5770 5770 5772 5772 5773 5773 5774 5775 5775 5776 5776 5776 5777 5777 5777 5778 5779 5779 5781 5781 5782 5781 5779 5777 5777 5776 5777 5777 5777 5776 5776 5775 5775 5776 5777 5778 5778 5778 5778
5768 5770 5770 5770 5769 5770 5770 5771 5771 5772 5773 5774 5774 5775 5776 5777 5778 5778 5778 5778 5779 5780 5781 5781 5780 5779 5778 5778 5776 5776 5776 5776 5777 5776 5775 5774 5774 5775 5777 5777 5776 5776
5765 5768 5769 5769 5769 5768 5768 5769 5770 5770 5771 5772 5772 5774 5775 5776 5776 5777 5777 5777 5777 5779 5780 5780 5780 5779 5780 5779 5778 5777 5776 5776 5776 5776 5776 5774 5773 5773 5774 5775 5775 5776
5761 5763 5765 5767 5767 5767 5767 5768 5769 5769 5769 5769 5771 5772 5773 5775 5775 5775 5775 5776 5776 5777 5777 5778 5779 5779 5779 5778 5778 5778 5776 5776 5775 5775 5775 5775 5773 5772 5772 5773 5774 5774
5759 5760 5760 5763 5765 5765 5766 5766 5767 5768 5767 5767 5768 5769 5770 5772 5773 5774 5774 5774 5775 5774 5774 5775 5775 5775 5775 5775 5775 5775 5774 5774 5773 5773 5774 5773 5773 5772 5772 5772 5772 5772
5756 5758 5758 5760 5762 5763 5764 5764 5764 5765 5765 5765 5765 5766 5767 5769 5770 5771 5772 5772 5772 5772 5771 5771 5771 5771 5771 5771 5772 5773 5773 5773 5772 5772 5772 5772 5772 5772 5772 5771 5771 5770
5753 5755 5755 5757 5759 5760 5760 5760 5760 5762 5763 5764 5764 5764 5764 5765 5766 5768 5768 5768 5769 5768 5768 5768 5768 5768 5768 5769 5770 5771 5772 5772 5772 5771 5771 5772 5773 5773 5772 5772 5771 5769
5751 5752 5752 5754 5756 5756 5757 5757 5757 5758 5759 5761 5762 5763 5763 5763 5763 5764 5765 5765 5765 5765 5765 5764 5764 5764 5765 5766 5767 5767 5769 5771 5771 5770 5770 5771 5772 5773 5772 5771 5770 5768
5748 5749 5750 5751 5751 5752 5752 5752 5753 5753 5754 5756 5758 5760 5761 5760 5758 5757 5757 5758 5759 5759 5759 5759 5759 5760 5761 5762 5763 5763 5764 5766 5767 5767 5766 5767 5768 5769 5769 5768 5767 5766
5745 5746 5747 5747 5748 5748 5748 5748 5750 5749 5749 5750 5751 5752 5753 5753 5753 5754 5753 5751 5751 5752 5753 5754 5754 5755 5756 5757 5757 5758 5758 5759 5761 5762 5762 5762 5762 5763 5764 5764 5765 5763
5741 5743 5743 5743 5742 5742 5742 5744 5745 5744 5743 5744 5744 5745 5747 5748 5749 5752 5750 5749 5748 5748 5749 5749 5748 5748 5749 5750 5751 5752 5751 5753 5756 5757 5757 5757 5759 5760 5760 5760 5761 5761
5737 5738 5738 5737 5736 5737 5737 5738 5738 5739 5740 5742 5741 5742 5743 5743 5744 5744 5742 5741 5742 5743 5743 5742 5741 5741 5743 5744 5745 5746 5746 5747 5748 5750 5751 5751 5753 5755 5754 5753 5755 5756
5732 5734 5734 5734 5733 5733 5733 5733 5733 5735 5737 5738 5739 5740 5739 5737 5737 5736 5734 5733 5734 5735 5735 5735 5734 5734 5735 5737 5739 5740 5741 5742 5743 5743 5745 5747 5749 5750 5748 5745 5745 5747